SCP
0 0 0 0 0 0 0 0 0 0 0 0 0 0 0 0 0 0 0 0 0 0 0 0 0 1 1 1 1 1 1 1 1 1 0 0 0 0 0 0 0 0 0
0 0 0 0 0 0 0 0 0 0 0 0 0 0 0 0 0 0 0 0 0 0 0 0 0 1 1 1 1 1 1 1 1 1 1 0 0 0 0 -0 0 0 0
1 1 0 0 0 0 0 0 0 0 0 0 0 0 0 0 0 0 0 0 0 1 1 1 1 1 1 1 2 1 1 1 1 1 1 1 0 0 0 0 0 0 -0
1 1 1 1 1 1 1 1 1 1 0 0 0 0 0 0 0 0 1 1 1 1 1 1 1 1 1 1 2 1 2 1 1 1 1 1 1 0 0 0 0 0 0
1 1 1 1 1 1 1 1 1 1 1 1 0 0 1 1 1 1 1 1 1 1 1 1 1 1 1 1 2 2 2 1 1 1 1 1 1 1 0 0 0 0 0
0 1 1 1 1 1 1 1 1 1 1 1 1 1 1 1 1 1 1 1 1 1 1 1 2 1 1 1 2 2 2 2 1 1 0 0 1 1 0 1 0 0 0
0 1 3 1 1 1 1 1 1 1 1 2 2 1 1 1 2 2 1 2 2 2 2 3 3 3 1 1 1 2 2 2 2 1 1 1 1 1 1 1 0 0 0
1 1 1 1 2 1 2 2 2 2 2 2 2 2 1 1 1 1 2 2 1 1 1 2 2 1 1 1 2 2 2 1 1 1 1 1 1 1 0 0 0 0 0
2 2 1 1 2 2 2 2 2 2 1 1 1 2 0 0 0 1 2 1 2 2 1 1 2 1 1 1 1 0 1 1 0 0 1 2 1 1 0 0 0 0 0
1 1 1 1 2 1 1 1 1 0 1 0 1 1 1 1 1 0 0 1 2 1 2 2 2 2 1 1 0 1 0 0 0 -0 0 3 1 1 1 0 0 0 0
1 2 2 1 1 1 1 0 0 0 0 0 0 0 0 0 0 1 1 0 0 0 0 1 1 1 1 1 0 0 0 0 0 0 0 0 1 1 0 0 0 0 0
1 1 1 1 1 0 0 0 0 0 0 0 0 0 0 0 0 0 0 0 0 0 0 0 1 0 1 1 0 0 0 0 0 0 0 0 1 1 1 0 0 0 0
1 1 1 1 0 0 0 0 0 0 0 0 0 0 0 0 0 0 0 0 0 0 0 0 0 0 0 1 1 0 0 0 0 0 0 0 0 0 0 0 0 0 0
0 1 0 0 0 0 0 0 0 0 0 0 0 0 0 0 0 0 0 0 0 0 0 1 0 0 0 0 0 0 0 0 0 0 0 0 0 0 0 0 0 0 0
0 1 0 0 0 0 0 0 0 0 0 0 0 0 0 0 0 0 0 0 0 0 0 0 0 0 0 0 0 0 0 0 0 0 0 0 0 0 0 0 0 0 0
0 0 0 0 0 0 0 0 0 0 0 0 0 0 0 0 0 0 0 0 0 0 0 0 0 0 0 0 0 0 0 0 0 0 0 0 0 0 0 0 0 0 0
0 0 0 0 0 0 0 0 0 0 0 0 0 0 0 0 0 0 0 0 0 0 0 0 0 0 0 0 0 0 0 0 0 0 0 0 0 0 0 0 0 0 0
0 0 0 0 0 0 0 0 0 0 0 0 0 0 0 0 0 0 0 0 0 0 0 0 0 0 0 0 0 0 0 0 0 0 0 0 0 0 0 0 0 0 0
0 0 0 0 0 0 0 0 0 0 0 0 0 0 0 0 0 0 0 0 0 0 0 0 0 0 0 0 0 0 0 1 0 0 0 0 0 0 0 0 0 0 0
0 0 0 0 0 0 0 0 0 0 0 0 0 0 0 0 0 0 0 0 0 0 0 0 0 0 0 0 0 0 0 0 1 0 0 0 0 0 0 0 0 0 0
0 0 0 0 0 0 0 0 0 0 1 0 1 0 0 0 0 0 0 0 0 0 0 0 0 0 0 0 0 0 0 0 0 0 0 0 0 0 0 0 0 0 0
0 0 0 0 0 0 0 0 0 0 0 1 1 1 1 0 0 0 0 0 0 0 0 0 0 0 0 0 0 0 0 0 0 0 1 0 0 0 0 0 0 0 0
0 0 0 0 0 0 0 0 0 0 0 0 1 1 0 0 0 0 0 0 0 0 0 0 0 0 0 0 0 0 0 0 0 0 0 0 0 0 0 0 0 0 0
0 0 0 0 0 0 0 0 0 0 0 0 0 0 0 0 0 0 0 0 0 0 0 0 0 0 0 0 0 0 0 0 0 0 0 0 0 0 0 0 0 0 0
0 0 0 0 0 0 0 0 0 0 0 0 0 0 0 0 0 0 0 0 0 0 0 0 0 0 0 0 0 0 0 0 0 0 0 0 0 0 0 0 0 0 0
0 0 0 0 0 0 0 0 0 0 0 0 0 0 0 0 0 0 0 0 0 0 0 0 0 0 0 0 0 0 0 0 0 0 0 -0 0 0 0 0 0 0 0
Wind_Speed_500mb
37 35 32 30 27 24 24 23 23 26 25 28 28 28 28 29 31 31 28 41 32 33 33 36 36 35 31 30 30 31 31 30 29 29 32 30 31 32 34 34 34 32 29
40 32 37 34 29 27 25 25 24 24 25 25 28 32 33 33 33 32 27 28 41 33 34 32 33 32 32 34 35 36 35 36 35 32 31 34 35 36 37 39 39 37 35
43 39 31 29 27 27 34 34 37 34 36 32 33 34 34 35 33 31 33 28 27 33 32 31 30 31 33 34 36 36 40 41 40 41 40 39 39 39 40 41 42 42 39
47 44 37 31 28 30 27 26 27 28 30 31 33 35 34 35 37 38 35 31 27 29 35 36 36 37 39 39 41 41 45 43 40 45 46 42 41 41 41 43 43 44 44
42 44 40 32 40 34 29 30 29 31 33 34 33 34 35 36 37 34 33 35 34 39 35 40 49 50 52 54 52 52 46 50 47 43 41 44 44 43 42 41 42 44 47
42 39 32 39 43 38 31 28 28 25 29 30 32 35 36 37 38 37 37 37 35 45 50 53 53 59 63 68 70 66 59 54 54 51 46 45 47 46 40 41 41 43 48
43 37 38 46 45 33 30 31 30 31 31 29 34 36 38 40 42 40 42 43 44 61 78 64 72 78 56 60 63 65 60 61 57 56 53 49 43 43 41 39 41 45 47
32 35 36 37 34 30 33 33 30 24 26 25 27 30 36 35 37 42 40 48 53 46 45 58 69 74 78 58 56 56 55 56 54 58 57 55 52 45 43 39 41 46 49
49 41 40 35 30 32 23 26 24 25 23 21 28 26 28 37 41 37 44 40 44 47 50 57 69 84 82 75 81 64 70 82 92 66 59 63 64 51 44 39 42 46 48
45 42 35 33 32 21 23 19 17 17 24 24 25 31 37 38 34 48 48 46 46 52 59 57 60 67 75 76 88 79 74 74 69 60 57 65 77 59 48 45 41 46 50
43 36 33 31 27 18 22 21 16 16 20 25 27 32 36 36 40 46 55 54 54 58 55 52 54 54 59 80 77 80 77 63 52 53 55 73 74 63 51 47 45 47 46
45 37 32 25 20 22 22 17 17 20 19 26 29 32 35 35 37 43 54 55 56 54 53 54 56 58 56 53 57 67 70 73 68 62 54 66 74 67 57 50 49 51 49
42 35 27 25 26 25 25 22 23 23 24 27 31 33 36 40 41 45 52 59 61 58 59 59 60 58 53 54 56 61 63 65 60 57 53 46 57 59 56 52 48 53 51
29 27 26 27 29 28 29 29 23 23 25 30 30 34 35 39 40 44 48 49 59 59 59 60 60 59 61 61 58 64 59 57 57 53 56 57 57 51 51 53 55 55 54
29 29 28 31 34 33 34 33 29 27 29 29 28 30 33 36 37 40 42 43 44 52 59 58 64 60 60 57 54 50 50 51 58 57 52 57 60 62 57 55 54 52 56
26 25 29 35 36 36 36 36 28 30 29 28 27 29 32 35 36 40 42 45 48 54 60 56 67 63 62 60 62 61 59 65 56 56 60 66 61 59 56 51 48 47 50
24 26 29 32 35 36 36 40 39 36 35 33 34 37 39 40 40 42 44 47 51 52 62 62 58 65 66 64 58 57 53 50 45 47 49 57 50 53 51 47 43 46 48
23 28 33 38 40 40 40 42 41 41 42 43 43 43 44 43 45 45 48 52 54 56 61 68 63 65 64 59 60 57 54 44 45 40 36 38 47 47 45 43 45 47 52
29 34 39 44 47 49 50 51 51 53 55 55 53 53 52 49 49 50 50 52 54 56 59 65 68 61 63 57 57 54 51 44 40 46 43 41 46 43 43 45 48 52 57
36 40 44 49 53 56 60 61 62 64 67 66 66 63 60 59 58 56 53 52 53 57 59 65 71 67 64 59 56 55 50 44 41 40 38 41 46 44 43 46 52 57 58
49 49 52 57 61 66 70 71 72 76 78 77 76 74 72 70 69 66 60 60 61 63 66 68 71 68 66 63 57 54 53 50 49 48 40 34 45 46 46 49 55 55 54
71 69 65 66 69 75 79 82 85 83 85 86 86 84 80 79 77 76 79 76 72 66 69 73 76 72 59 64 60 56 57 62 66 57 53 50 39 37 33 33 38 48 48
60 63 66 68 74 77 81 84 87 90 88 90 88 90 91 88 84 76 70 69 64 65 66 72 79 76 70 61 59 61 58 52 43 36 43 54 49 39 36 34 49 47 50
62 64 66 69 73 75 77 80 83 83 84 87 86 85 87 90 87 82 75 72 69 64 63 71 73 71 68 63 60 59 51 58 46 31 34 37 36 32 32 31 43 44 39
62 65 66 67 68 68 66 68 71 63 66 69 71 78 84 86 82 76 73 77 72 69 66 72 74 73 72 72 61 57 57 47 36 34 37 32 31 26 27 25 30 29 33
59 57 58 58 59 62 62 70 69 73 72 73 75 72 76 77 71 76 74 74 73 70 63 63 61 69 65 65 50 51 41 42 41 22 36 33 25 18 20 20 22 18 18
Wind_Direction_500mb
214 218 219 217 221 226 235 238 244 254 261 268 268 271 275 274 279 281 278 282 281 277 277 276 277 280 277 277 275 276 280 285 289 286 283 282 279 274 265 260 256 256 255
222 218 228 232 229 232 235 241 249 254 261 259 264 275 276 274 277 272 275 274 283 275 274 278 276 274 277 274 279 276 273 278 281 280 279 280 277 276 271 262 257 254 255
227 223 224 226 230 234 245 255 262 268 270 271 270 269 269 271 269 267 272 272 275 285 275 272 269 271 275 277 277 281 277 274 275 273 274 275 278 276 274 268 261 258 254
228 237 230 230 230 240 245 248 252 255 258 261 263 264 265 266 264 266 267 265 263 265 277 279 266 267 266 270 271 278 276 271 271 273 271 271 271 273 271 271 267 261 256
241 238 241 235 245 243 244 248 253 255 258 262 263 267 267 266 268 266 260 257 267 270 266 269 278 273 272 270 267 265 267 263 262 271 271 266 267 267 268 267 268 265 259
234 220 245 239 242 244 240 242 241 250 258 262 264 265 266 264 263 263 262 261 257 274 285 283 284 286 281 274 270 270 264 256 255 262 267 264 260 258 260 260 261 262 261
229 215 205 234 232 231 236 247 256 260 261 268 271 277 276 271 266 260 264 260 252 273 278 273 281 277 271 273 278 270 262 256 255 259 265 260 254 253 254 253 260 262 261
229 221 218 225 235 240 246 252 261 256 265 259 263 276 279 278 268 263 266 258 259 264 258 268 270 270 269 267 270 265 264 259 259 257 259 261 253 251 251 248 258 265 262
218 221 224 225 239 242 242 251 246 255 253 271 265 257 281 278 293 273 278 269 266 266 267 272 276 275 277 280 272 266 274 282 258 264 266 263 262 252 246 247 254 263 265
225 227 226 229 228 218 225 237 236 231 265 266 261 271 270 274 280 285 276 269 272 275 279 274 273 275 271 276 276 277 273 277 267 268 268 260 258 246 243 245 254 262 264
226 220 214 212 223 225 240 232 246 254 250 268 271 276 273 276 274 272 280 279 276 272 273 281 274 273 270 272 276 274 283 293 268 283 263 249 249 249 245 248 254 259 266
219 211 216 226 231 226 240 251 263 265 273 264 272 273 274 270 272 275 277 279 278 279 277 276 278 281 279 277 277 276 279 286 283 288 274 252 249 253 248 254 258 261 267
208 212 219 229 229 233 246 254 270 264 273 270 269 272 271 271 274 275 278 281 284 283 280 276 275 281 285 280 280 284 282 282 284 274 270 246 244 244 250 259 257 262 265
202 216 221 230 236 247 255 261 264 270 263 273 270 271 270 271 272 274 275 279 282 283 283 282 283 282 279 280 283 285 287 281 277 277 252 246 249 253 258 258 258 258 260
204 222 233 240 242 250 255 264 275 264 274 277 270 274 275 273 272 274 274 273 277 281 280 284 284 284 282 281 281 281 283 284 288 273 259 251 253 253 264 257 253 254 259
214 240 244 244 247 250 254 265 261 266 268 272 268 266 269 272 271 273 274 275 274 277 278 281 284 284 283 280 280 280 283 286 283 280 265 246 251 249 254 248 249 251 254
233 240 248 244 245 247 251 258 262 259 253 256 259 260 262 266 269 270 272 273 275 277 279 287 285 287 285 284 282 274 275 278 281 287 278 240 242 241 244 246 245 247 251
245 246 245 246 248 249 252 253 254 257 258 255 255 258 261 265 264 268 273 274 274 274 278 283 283 284 286 284 279 280 278 272 271 269 269 239 234 233 236 239 241 246 256
249 250 251 251 254 256 259 259 260 260 259 258 258 259 262 264 264 267 266 269 272 275 276 279 283 283 284 285 285 280 274 271 260 257 250 238 232 234 239 243 248 255 264
261 260 259 259 259 260 261 262 263 263 261 260 260 261 263 263 264 263 265 267 273 277 278 278 278 279 280 286 282 279 272 263 256 248 244 234 237 241 241 244 256 266 267
271 270 269 266 265 264 265 265 263 262 262 263 262 263 264 263 261 257 260 264 268 275 276 275 274 274 276 278 277 278 270 263 262 246 238 235 240 246 244 254 264 265 264
272 272 270 269 267 265 266 263 262 262 262 263 264 263 261 261 259 259 260 262 265 272 274 270 270 272 273 278 276 274 270 273 266 256 237 234 227 224 231 243 252 261 269
280 276 273 271 269 268 268 266 265 264 265 263 262 260 258 257 257 254 258 264 268 277 280 274 265 266 271 274 278 274 266 269 255 253 224 235 227 228 236 239 249 261 265
279 277 276 274 275 273 272 270 268 267 267 266 264 263 262 260 251 250 254 257 263 271 274 272 267 266 269 267 273 270 260 269 246 219 216 221 211 225 228 236 254 259 256
280 279 278 279 278 279 277 275 272 273 269 268 267 263 260 259 251 247 249 250 261 269 276 272 270 268 267 270 261 253 258 250 216 214 214 212 208 215 229 236 247 251 246
285 285 284 282 282 280 274 269 270 270 272 274 272 264 254 254 257 249 248 249 260 266 275 277 272 268 264 260 240 231 232 194 175 174 228 205 201 205 222 220 212 268 282
Wind_Speed_850mb
37 35 32 30 27 24 24 23 23 26 25 28 28 28 28 29 31 31 28 41 32 33 33 36 36 35 31 30 30 31 31 30 29 29 32 30 31 32 34 34 34 32 29
40 32 37 34 29 27 25 25 24 24 25 25 28 32 33 33 33 32 27 28 41 33 34 32 33 32 32 34 35 36 35 36 35 32 31 34 35 36 37 39 39 37 35
43 39 31 29 27 27 34 34 37 34 36 32 33 34 34 35 33 31 33 28 27 33 32 31 30 31 33 34 36 36 40 41 40 41 40 39 39 39 40 41 42 42 39
47 44 37 31 28 30 27 26 27 28 30 31 33 35 34 35 37 38 35 31 27 29 35 36 36 37 39 39 41 41 45 43 40 45 46 42 41 41 41 43 43 44 44
42 44 40 32 40 34 29 30 29 31 33 34 33 34 35 36 37 34 33 35 34 39 35 40 49 50 52 54 52 52 46 50 47 43 41 44 44 43 42 41 42 44 47
42 39 32 39 43 38 31 28 28 25 29 30 32 35 36 37 38 37 37 37 35 45 50 53 53 59 63 68 70 66 59 54 54 51 46 45 47 46 40 41 41 43 48
43 37 38 46 45 33 30 31 30 31 31 29 34 36 38 40 42 40 42 43 44 61 78 64 72 78 56 60 63 65 60 61 57 56 53 49 43 43 41 39 41 45 47
32 35 36 37 34 30 33 33 30 24 26 25 27 30 36 35 37 42 40 48 53 46 45 58 69 74 78 58 56 56 55 56 54 58 57 55 52 45 43 39 41 46 49
49 41 40 35 30 32 23 26 24 25 23 21 28 26 28 37 41 37 44 40 44 47 50 57 69 84 82 75 81 64 70 82 92 66 59 63 64 51 44 39 42 46 48
45 42 35 33 32 21 23 19 17 17 24 24 25 31 37 38 34 48 48 46 46 52 59 57 60 67 75 76 88 79 74 74 69 60 57 65 77 59 48 45 41 46 50
43 36 33 31 27 18 22 21 16 16 20 25 27 32 36 36 40 46 55 54 54 58 55 52 54 54 59 80 77 80 77 63 52 53 55 73 74 63 51 47 45 47 46
45 37 32 25 20 22 22 17 17 20 19 26 29 32 35 35 37 43 54 55 56 54 53 54 56 58 56 53 57 67 70 73 68 62 54 66 74 67 57 50 49 51 49
42 35 27 25 26 25 25 22 23 23 24 27 31 33 36 40 41 45 52 59 61 58 59 59 60 58 53 54 56 61 63 65 60 57 53 46 57 59 56 52 48 53 51
29 27 26 27 29 28 29 29 23 23 25 30 30 34 35 39 40 44 48 49 59 59 59 60 60 59 61 61 58 64 59 57 57 53 56 57 57 51 51 53 55 55 54
29 29 28 31 34 33 34 33 29 27 29 29 28 30 33 36 37 40 42 43 44 52 59 58 64 60 60 57 54 50 50 51 58 57 52 57 60 62 57 55 54 52 56
26 25 29 35 36 36 36 36 28 30 29 28 27 29 32 35 36 40 42 45 48 54 60 56 67 63 62 60 62 61 59 65 56 56 60 66 61 59 56 51 48 47 50
24 26 29 32 35 36 36 40 39 36 35 33 34 37 39 40 40 42 44 47 51 52 62 62 58 65 66 64 58 57 53 50 45 47 49 57 50 53 51 47 43 46 48
23 28 33 38 40 40 40 42 41 41 42 43 43 43 44 43 45 45 48 52 54 56 61 68 63 65 64 59 60 57 54 44 45 40 36 38 47 47 45 43 45 47 52
29 34 39 44 47 49 50 51 51 53 55 55 53 53 52 49 49 50 50 52 54 56 59 65 68 61 63 57 57 54 51 44 40 46 43 41 46 43 43 45 48 52 57
36 40 44 49 53 56 60 61 62 64 67 66 66 63 60 59 58 56 53 52 53 57 59 65 71 67 64 59 56 55 50 44 41 40 38 41 46 44 43 46 52 57 58
49 49 52 57 61 66 70 71 72 76 78 77 76 74 72 70 69 66 60 60 61 63 66 68 71 68 66 63 57 54 53 50 49 48 40 34 45 46 46 49 55 55 54
71 69 65 66 69 75 79 82 85 83 85 86 86 84 80 79 77 76 79 76 72 66 69 73 76 72 59 64 60 56 57 62 66 57 53 50 39 37 33 33 38 48 48
60 63 66 68 74 77 81 84 87 90 88 90 88 90 91 88 84 76 70 69 64 65 66 72 79 76 70 61 59 61 58 52 43 36 43 54 49 39 36 34 49 47 50
62 64 66 69 73 75 77 80 83 83 84 87 86 85 87 90 87 82 75 72 69 64 63 71 73 71 68 63 60 59 51 58 46 31 34 37 36 32 32 31 43 44 39
62 65 66 67 68 68 66 68 71 63 66 69 71 78 84 86 82 76 73 77 72 69 66 72 74 73 72 72 61 57 57 47 36 34 37 32 31 26 27 25 30 29 33
59 57 58 58 59 62 62 70 69 73 72 73 75 72 76 77 71 76 74 74 73 70 63 63 61 69 65 65 50 51 41 42 41 22 36 33 25 18 20 20 22 18 18
Wind_Direction_850mb
214 218 219 217 221 226 235 238 244 254 261 268 268 271 275 274 279 281 278 282 281 277 277 276 277 280 277 277 275 276 280 285 289 286 283 282 279 274 265 260 256 256 255
222 218 228 232 229 232 235 241 249 254 261 259 264 275 276 274 277 272 275 274 283 275 274 278 276 274 277 274 279 276 273 278 281 280 279 280 277 276 271 262 257 254 255
227 223 224 226 230 234 245 255 262 268 270 271 270 269 269 271 269 267 272 272 275 285 275 272 269 271 275 277 277 281 277 274 275 273 274 275 278 276 274 268 261 258 254
228 237 230 230 230 240 245 248 252 255 258 261 263 264 265 266 264 266 267 265 263 265 277 279 266 267 266 270 271 278 276 271 271 273 271 271 271 273 271 271 267 261 256
241 238 241 235 245 243 244 248 253 255 258 262 263 267 267 266 268 266 260 257 267 270 266 269 278 273 272 270 267 265 267 263 262 271 271 266 267 267 268 267 268 265 259
234 220 245 239 242 244 240 242 241 250 258 262 264 265 266 264 263 263 262 261 257 274 285 283 284 286 281 274 270 270 264 256 255 262 267 264 260 258 260 260 261 262 261
229 215 205 234 232 231 236 247 256 260 261 268 271 277 276 271 266 260 264 260 252 273 278 273 281 277 271 273 278 270 262 256 255 259 265 260 254 253 254 253 260 262 261
229 221 218 225 235 240 246 252 261 256 265 259 263 276 279 278 268 263 266 258 259 264 258 268 270 270 269 267 270 265 264 259 259 257 259 261 253 251 251 248 258 265 262
218 221 224 225 239 242 242 251 246 255 253 271 265 257 281 278 293 273 278 269 266 266 267 272 276 275 277 280 272 266 274 282 258 264 266 263 262 252 246 247 254 263 265
225 227 226 229 228 218 225 237 236 231 265 266 261 271 270 274 280 285 276 269 272 275 279 274 273 275 271 276 276 277 273 277 267 268 268 260 258 246 243 245 254 262 264
226 220 214 212 223 225 240 232 246 254 250 268 271 276 273 276 274 272 280 279 276 272 273 281 274 273 270 272 276 274 283 293 268 283 263 249 249 249 245 248 254 259 266
219 211 216 226 231 226 240 251 263 265 273 264 272 273 274 270 272 275 277 279 278 279 277 276 278 281 279 277 277 276 279 286 283 288 274 252 249 253 248 254 258 261 267
208 212 219 229 229 233 246 254 270 264 273 270 269 272 271 271 274 275 278 281 284 283 280 276 275 281 285 280 280 284 282 282 284 274 270 246 244 244 250 259 257 262 265
202 216 221 230 236 247 255 261 264 270 263 273 270 271 270 271 272 274 275 279 282 283 283 282 283 282 279 280 283 285 287 281 277 277 252 246 249 253 258 258 258 258 260
204 222 233 240 242 250 255 264 275 264 274 277 270 274 275 273 272 274 274 273 277 281 280 284 284 284 282 281 281 281 283 284 288 273 259 251 253 253 264 257 253 254 259
214 240 244 244 247 250 254 265 261 266 268 272 268 266 269 272 271 273 274 275 274 277 278 281 284 284 283 280 280 280 283 286 283 280 265 246 251 249 254 248 249 251 254
233 240 248 244 245 247 251 258 262 259 253 256 259 260 262 266 269 270 272 273 275 277 279 287 285 287 285 284 282 274 275 278 281 287 278 240 242 241 244 246 245 247 251
245 246 245 246 248 249 252 253 254 257 258 255 255 258 261 265 264 268 273 274 274 274 278 283 283 284 286 284 279 280 278 272 271 269 269 239 234 233 236 239 241 246 256
249 250 251 251 254 256 259 259 260 260 259 258 258 259 262 264 264 267 266 269 272 275 276 279 283 283 284 285 285 280 274 271 260 257 250 238 232 234 239 243 248 255 264
261 260 259 259 259 260 261 262 263 263 261 260 260 261 263 263 264 263 265 267 273 277 278 278 278 279 280 286 282 279 272 263 256 248 244 234 237 241 241 244 256 266 267
271 270 269 266 265 264 265 265 263 262 262 263 262 263 264 263 261 257 260 264 268 275 276 275 274 274 276 278 277 278 270 263 262 246 238 235 240 246 244 254 264 265 264
272 272 270 269 267 265 266 263 262 262 262 263 264 263 261 261 259 259 260 262 265 272 274 270 270 272 273 278 276 274 270 273 266 256 237 234 227 224 231 243 252 261 269
280 276 273 271 269 268 268 266 265 264 265 263 262 260 258 257 257 254 258 264 268 277 280 274 265 266 271 274 278 274 266 269 255 253 224 235 227 228 236 239 249 261 265
279 277 276 274 275 273 272 270 268 267 267 266 264 263 262 260 251 250 254 257 263 271 274 272 267 266 269 267 273 270 260 269 246 219 216 221 211 225 228 236 254 259 256
280 279 278 279 278 279 277 275 272 273 269 268 267 263 260 259 251 247 249 250 261 269 276 272 270 268 267 270 261 253 258 250 216 214 214 212 208 215 229 236 247 251 246
285 285 284 282 282 280 274 269 270 270 272 274 272 264 254 254 257 249 248 249 260 266 275 277 272 268 264 260 240 231 232 194 175 174 228 205 201 205 222 220 212 268 282